sat.trackr.live / text

‹ back to catalog

STARLINK-34948

NORAD 65191 · 2025-175T

PAYLOAD ACTIVE UNKNOWN

§ Identity

Operator
Country
US
Launch date
2025-08-14
Launch site
AFWTR
Launch vehicle
Mass (kg)
RCS (m²)

Purposes: comms

External: N2YO · Heavens-Above · Gunter

§ Orbital elements

Epoch: 2026-05-25T02:58:04.039968Z

Period
95.64 min
Inclination
97.4535°
Eccentricity
0.0002015
Mean motion
15.05657445 rev/d
Perigee alt
548.1 km
Apogee alt
550.9 km
Semi-major
6,927.6 km
B*
3.1451e-4
RAAN
17.6490°
Arg perigee
82.2633°
Mean anomaly
277.8822°
Rev number
4,414

§ Raw data

STARLINK-349481 65191U 25175T   26145.12365787  .00004483  00000+0  31451-3 0  99942 65191  97.4535  17.6490 0002015  82.2633 277.8822 15.05657445 44147

JSON: /api/v1/satellites/65191 · /tle

For live sub-satellite position, see the globe view (requires WebGL).

§ Visibility from observer

Set your observer location to see the next 7 days of passes ≥ 10°. The values pass through the URL so the page stays shareable.

No JS? Fill the form by hand. The geolocation button needs JavaScript.